Вернуться в каталог

ONEWEB-0270

АктивенСвязьPO
NORAD 48988·PAYLOAD·🇬🇧 United Kingdom

Запущен Jul 1, 2021 с Vostochny Cosmodrome

Loading…

Ближайшие Пролёты (ближайшие 24 часа)

TLE

СвежийSource: CelesTrak SupGP

Эпоха: Sep 14, 2026, 17:10 UTC

1 48988C 21060X   26257.71546713  .00003481  00000+0  91179-2 0  2573
2 48988  87.9143 211.0038 0002006  69.9007 325.9065 13.16590679    13

Отслеживайте ONEWEB-0270 в реальном времени с AllMySat

Download on the App Store